"Pseudo-MPEC" for P11JDKP

Created 2023 Sep 19 11:22:29 UT using Find_Orb

Click here for an explanation of pseudo-MPECs

 
 Astrometry: 
     P11JDKP* C2023 09 15]Dw3,#d'_6O*#lpWPd)%Yn*OAstrometry'YJ:ea_Nks8LX(Ub,YF51
     P11JDKP  C2023 09 15VY5-wfVfK,m^0.JqG@Fl:8rAs5'OH]b]D_UeAjiN2Qx]x?]j3vb+F51
     P11JDKP  C2023 09 15q5tReB5MY434y)0i+y=q*p.(ilLBhamW\EBXZJ8nredacted;]LGF51
     P11JDKP KC2023 09 16.44198 00 53 24.30 -15 29 46.2    ~9GBq 21.0 RVNEOCP691
     P11JDKP KC2023 09 16.44848 00 53 25.19 -15 29 43.0    ~9GBq 20.5 RVNEOCP691
     P11JDKP KC2023 09 16.45501 00 53 26.08 -15 29 40.8    ~9GBq 21.5 RVNEOCP691
     P11JDKP KC2023 09 18.33125500 57 57.042-15 14 16.73   ~9I8M 22.05GVNEOCPI52
     P11JDKP KC2023 09 18.33340600 57 57.265-15 14 16.08   ~9I8M 21.60GVNEOCPI52
     P11JDKP KC2023 09 18.33555600 57 57.517-15 14 14.10   ~9I8M 21.82GVNEOCPI52
     P11JDKP KC2023 09 18.33770000 57 57.766-15 14 13.02   ~9I8M 20.86GVNEOCPI52
     P11JDKP 3C2023 09 18@6click6%i.Ps$^Um*[oL#0?[F#%S'=!hereCI^4_c#mmQKR,6BgT14
     P11JDKP 3C2023 09 18=ER6xU^#.et/*Xh,r,/?y`k+GcBC+9h]OI[*-9lL3VV+hy7`+!Z^T14
     P11JDKP 3C2023 09 18a%jbBf_M%NdTQ989_d;u2*t#DY$$=@]a(Mh-,pr;!rT9e9#k/xW9T14
     P11JDKP  C2023 09 19L[]+_#%SdbYlPAxm9!?G:*;quJJScvh(Mp+SJo;];E$:yq-6/ntJF52
     P11JDKP  C2023 09 19eJt5W7fforEkexplanationnrbS%2Hto?N2y?rjNfdR,4uE=ajc/F52
     P11JDKP  C2023 09 19=KbB7e=`)64;/h4'X=HBoT1P)VmE!VT[=`r(WYenG#5n^m1,j[:UF52

Station data:
(691) Steward Observatory, Kitt Peak - Spacewatch  (N31.962174 W111.600327)
   US/Arizona.  Observer J. V. Scotti. 0.9-m f/3 reflector + CCD.
(F51) Pan-STARRS 1, Haleakala  (N20.707234 W156.255910)  US/Hawaii.
   Observers J. Bulger, T. Lowe, A. Schultz, M. Willman. Measurers K.
   Chambers, S. Chastel, T. de Boer, L. Denneau, J. Fairlamb, H. Flewelling,
   M. Huber, C.-C. Lin, E. Magnier, Y. Ramanjooloo, R. Wainscoat, R. Weryk.
   1.8-m Ritchey-Chrétien + CCD.
(F52) Pan-STARRS 2, Haleakala  (N20.707382 W156.255910)  US/Hawaii.
   Observers J. Bulger, T. Dukes, T. Lowe, A. Schultz, M. Willman. Measurers
   K. Chambers, S. Chastel, T. de Boer, L. Denneau, J. Fairlamb, H.
   Flewelling, M. Huber, C.-C. Lin, E. Magnier, Y. Ramanjooloo, R. Wainscoat,
   R. Weryk. 1.8-m Ritchey-Chrétien + CCD.
(I52) Steward Observatory, Mt. Lemmon Station  (N32.442544 W110.788920)
   US/Arizona.  Observers T. A. Pruyne, B. M. Africano, E. J. Christensen, G.
   A. Farneth, D. C. Fuls, A. R. Gibbs, A. D. Grauer, H. Gröller, J. A.
   Johnson, R. A. Kowalski, S. M. Larson, G. J. Leonard, D. Rankin, R. L.
   Seaman, F. C. Shelly, K. W. Wierzchoś. 1.0-m prime focus + CCD.
(T14) Mauna Kea-UH/Tholen NEO Follow-Up (CFHT)  (N19.825252 W155.468876)
   US/Hawaii.  Observer R. Weryk. 3.6-m Canada-France-Hawaii Telescope.

Orbital elements:  P11JDKP
   Perihelion 2023 Oct 4.30155 +/- 0.0723 TT =  7:14:13 (JD 2460221.80155)
Epoch 2023 Sep 19.0 TT = JDT 2460206.5   Earth MOID: 0.2164   Ma: 0.0280
M 356.28223716 +/- 0.06             (J2000 ecliptic)             AutoNEOCP
n   0.24296644 +/- 0.0047           Peri.  287.22641 +/- 0.13
a   2.54353964 +/- 0.0328           Node    84.34276 +/- 0.07
e   0.5257962 +/- 0.00544           Incl.    3.64371 +/- 0.026
P   4.06                   H 23.38  G  0.15   U  9.1
q 1.20615593 +/- 0.00174    Q 3.88092335 +/- 0.0639
From 16 observations 2023 Sept. 15-19; mean residual 0".40
Residuals in arcseconds: 
230915 F51  .02-  .05-    230918 I52  .63+  .33-    230918 T14  .01+  .06-    
230915 F51  .00   .03-    230918 I52  .16-  .80-    230919 F52  .08-  .13+    
230915 F51  .06-  .02-    230918 I52  .52-  .06+    230919 F52  .03-  .19+    
230916 691  .22-  1.1+    230918 I52  .92-  .02+    230919 F52  .05+  .22+    
230916 691  .23+  1.1+    230918 T14  .02+  .05-    
230916 691  .59+  .12+    230918 T14  .01+  .05-    

Ephemerides (geocentric):
Date (UTC) HH   RA             Dec           delta  r     elong  mag " sig PA
---- --------  ------------   ------------  ------ ------ -----  --- --------
2023 09 19 11  01 00 37.121   -15 03 27.22  .22799 1.2178 157.0 21.6 .332 139
2023 09 19 12  01 00 43.032   -15 03 03.31  .22793 1.2178 157.0 21.6 .349 137
2023 09 19 13  01 00 48.942   -15 02 39.33  .22786 1.2177 157.0 21.6 .366 135
2023 09 19 14  01 00 54.851   -15 02 15.28  .22780 1.2177 157.0 21.6 .383 134
2023 09 19 15  01 01 00.758   -15 01 51.17  .22774 1.2176 157.0 21.6 .401 132
2023 09 19 16  01 01 06.663   -15 01 26.98  .22768 1.2175 157.0 21.6 .420 131
2023 09 19 17  01 01 12.567   -15 01 02.73  .22762 1.2175 157.0 21.6 .440 130
2023 09 19 18  01 01 18.469   -15 00 38.41  .22756 1.2174 157.1 21.6 .460 128
2023 09 19 19  01 01 24.369   -15 00 14.02  .22750 1.2173 157.1 21.6 .480 127
2023 09 19 20  01 01 30.268   -14 59 49.57  .22744 1.2173 157.1 21.6 .501 126
2023 09 19 21  01 01 36.165   -14 59 25.04  .22738 1.2172 157.1 21.5 .522 125
2023 09 19 22  01 01 42.060   -14 59 00.45  .22732 1.2171 157.1 21.5 .544 124
2023 09 19 23  01 01 47.954   -14 58 35.78  .22726 1.2171 157.1 21.5 .567 123
2023 09 20 00  01 01 53.846   -14 58 11.05  .22720 1.2170 157.1 21.5 .590 123
2023 09 20 01  01 01 59.737   -14 57 46.26  .22714 1.2170 157.1 21.5 .613 122
2023 09 20 02  01 02 05.626   -14 57 21.39  .22708 1.2169 157.1 21.5 .637 121
2023 09 20 03  01 02 11.513   -14 56 56.45  .22702 1.2168 157.1 21.5 .661 120
2023 09 20 04  01 02 17.398   -14 56 31.45  .22696 1.2168 157.1 21.5 .685 120
2023 09 20 05  01 02 23.282   -14 56 06.37  .22690 1.2167 157.1 21.5 .710 119
2023 09 20 06  01 02 29.164   -14 55 41.23  .22684 1.2166 157.1 21.5 .736 119
2023 09 20 07  01 02 35.044   -14 55 16.02  .22678 1.2166 157.1 21.5 .762 118
2023 09 20 08  01 02 40.923   -14 54 50.74  .22672 1.2165 157.1 21.5 .788 118
2023 09 20 09  01 02 46.800   -14 54 25.39  .22667 1.2165 157.1 21.5 .815 117
2023 09 20 10  01 02 52.675   -14 53 59.98  .22661 1.2164 157.1 21.5 .842 117
2023 09 20 11  01 02 58.548   -14 53 34.49  .22655 1.2163 157.1 21.5 .870 116
2023 09 20 12  01 03 04.420   -14 53 08.94  .22649 1.2163 157.1 21.5 .897 116
2023 09 20 13  01 03 10.290   -14 52 43.31  .22643 1.2162 157.1 21.5 .926 115
2023 09 20 14  01 03 16.158   -14 52 17.62  .22638 1.2162 157.1 21.5 .955 115
2023 09 20 15  01 03 22.025   -14 51 51.86  .22632 1.2161 157.1 21.5 .984 115
2023 09 20 16  01 03 27.889   -14 51 26.03  .22626 1.2160 157.1 21.5 1.01 114
2023 09 20 17  01 03 33.752   -14 51 00.13  .22621 1.2160 157.2 21.5 1.04 114
2023 09 20 18  01 03 39.613   -14 50 34.16  .22615 1.2159 157.2 21.5 1.07 114
2023 09 20 19  01 03 45.473   -14 50 08.12  .22609 1.2159 157.2 21.5 1.10 113
2023 09 20 20  01 03 51.330   -14 49 42.01  .22604 1.2158 157.2 21.5 1.14 113
2023 09 20 21  01 03 57.186   -14 49 15.83  .22598 1.2157 157.2 21.5 1.17 113
2023 09 20 22  01 04 03.040   -14 48 49.59  .22592 1.2157 157.2 21.5 1.20 113
2023 09 20 23  01 04 08.892   -14 48 23.27  .22587 1.2156 157.2 21.5 1.23 112
2023 09 21 00  01 04 14.742   -14 47 56.89  .22581 1.2156 157.2 21.5 1.26 112
2023 09 21 01  01 04 20.591   -14 47 30.43  .22576 1.2155 157.2 21.5 1.30 112
2023 09 21 02  01 04 26.437   -14 47 03.91  .22570 1.2154 157.2 21.5 1.33 112
2023 09 21 03  01 04 32.282   -14 46 37.32  .22565 1.2154 157.2 21.5 1.36 112
2023 09 21 04  01 04 38.125   -14 46 10.66  .22559 1.2153 157.2 21.5 1.40 111
2023 09 21 05  01 04 43.966   -14 45 43.93  .22554 1.2153 157.2 21.5 1.43 111
2023 09 21 06  01 04 49.806   -14 45 17.12  .22548 1.2152 157.2 21.5 1.47 111
2023 09 21 07  01 04 55.643   -14 44 50.25  .22543 1.2152 157.2 21.5 1.50 111
2023 09 21 08  01 05 01.478   -14 44 23.31  .22538 1.2151 157.2 21.5 1.54 111
2023 09 21 09  01 05 07.312   -14 43 56.31  .22532 1.2150 157.2 21.5 1.57 110
2023 09 21 10  01 05 13.144   -14 43 29.23  .22527 1.2150 157.2 21.5 1.61 110